P/2020 R5 ( PanSTARRS )

Japanese version
Home page
Updated on December 11, 2020

---------------------------------------------------------------------

* Profile

Discovery Date September 14, 2020
Magnitude 20.5 mag
Discoverer Pan-STARRS2 1.8-m Ritchey-Chretien reflector (Haleakala, Hawaii)

* Orbital Elements

Epoch 2020 May 31.0 TT = JDT 2459000.5
T 2020 May 28.08544 TT                                  Rudenko
q   3.4130473            (2000.0)            P               Q
n   0.08872264     Peri.   82.30121     +0.97688355     +0.07979474
a   4.9786669      Node   272.96885     -0.15487450     +0.90364832
e   0.3144656      Incl.   11.45439     +0.14735133     +0.42077609
P  11.1
From 75 observations 2019 May 30-2020 Oct. 14, mean residual 0".3.

* Magnitudes Graph

        m1 = 7.0 + 5 log d + 20.0 log r(t - 200)

---------------------------------------------------------------------

The orbital elements are published on M.P.E.C. 2020-U96.
The magnitudes graphs are made with Comet for Windows.

---------------------------------------------------------------------

Copyright(C) Seiichi Yoshida (comet@aerith.net). All rights reserved.